This is the latest recevied weather packets stored in our database for station/object WO5CID. If no packets are shown the sender has not sent any weather packets the latest 1 day(s).
| Time | Temp. | Humidity | Pressure | Rain* | Wind** | Luminosity | Snow |
|---|---|---|---|---|---|---|---|
| 1778023491 | 25° C | 50% | 1014.6 hPa | 0 mm | 0 m/s | 24 W/m² | - |
| 1778023183 | 25° C | 49% | 1015 hPa | 0 mm | 0.45 m/s, 162° | 39 W/m² | - |
| 1778022880 | 25.56° C | 49% | 1014.7 hPa | 0 mm | 0.45 m/s, 183° | 47 W/m² | - |
| 1778022578 | 25.56° C | 48% | 1014.9 hPa | 0 mm | 0.89 m/s, 58° | 44 W/m² | - |
| 1778022276 | 25.56° C | 47% | 1014.7 hPa | 0 mm | 0.45 m/s, 166° | 50 W/m² | - |
| 1778021971 | 26.11° C | 47% | 1014.7 hPa | 0 mm | 0.45 m/s, 233° | 50 W/m² | - |
| 1778021668 | 26.11° C | 49% | 1014.6 hPa | 0 mm | 0.45 m/s, 219° | 52 W/m² | - |
| 1778021363 | 26.11° C | 47% | 1014.7 hPa | 0 mm | 0.45 m/s, 153° | 56 W/m² | - |
| 1778021056 | 26.67° C | 47% | 1015 hPa | 0 mm | 0.89 m/s, 117° | 69 W/m² | - |
| 1778020753 | 27.22° C | 46% | 1014.6 hPa | 0 mm | 0.45 m/s, 258° | 63 W/m² | - |
| 1778020450 | 27.22° C | 46% | 1014.7 hPa | 0 mm | 0.45 m/s, 179° | 123 W/m² | - |
| 1778020146 | 27.22° C | 45% | 1014.7 hPa | 0 mm | 0.89 m/s, 180° | 144 W/m² | - |
| 1778019842 | 27.22° C | 44% | 1014.5 hPa | 0 mm | 0.45 m/s, 216° | 170 W/m² | - |
| 1778019539 | 27.78° C | 44% | 1014.6 hPa | 0 mm | 0.89 m/s, 231° | 130 W/m² | - |
| 1778019236 | 27.78° C | 43% | 1014.5 hPa | 0 mm | 0.89 m/s, 108° | 142 W/m² | - |
| 1778018933 | 28.33° C | 42% | 1014.5 hPa | 0 mm | 0.45 m/s, 212° | 124 W/m² | - |
| 1778018630 | 28.33° C | 42% | 1014.5 hPa | 0 mm | 0.45 m/s, 213° | 247 W/m² | - |
| 1778018327 | 28.89° C | 42% | 1014.5 hPa | 0 mm | 0.89 m/s, 184° | 282 W/m² | - |
| 1778018026 | 28.89° C | 42% | 1014.7 hPa | 0 mm | 0.45 m/s, 271° | 300 W/m² | - |
| 1778017723 | 28.89° C | 42% | 1014.6 hPa | 0 mm | 0.45 m/s, 203° | 277 W/m² | - |
| 1778017420 | 28.89° C | 41% | 1014.3 hPa | 0 mm | 0.45 m/s, 285° | 385 W/m² | - |
| 1778017118 | 28.89° C | 40% | 1014.5 hPa | 0 mm | 0.45 m/s, 243° | 226 W/m² | - |
| 1778016816 | 28.89° C | 40% | 1014.5 hPa | 0 mm | 0.89 m/s, 33° | 356 W/m² | - |
| 1778016511 | 28.89° C | 42% | 1014.6 hPa | 0 mm | 0.45 m/s, 234° | 433 W/m² | - |
| 1778016208 | 30° C | 41% | 1014.6 hPa | 0 mm | 0.89 m/s, 273° | 166 W/m² | - |
* Rain latest hour (hover to see other rain measurements)
** Current wind speed in m/s (hover to see current wind gust speed)